period_start,C,m1,H,J0,J1,J2,J3,J4,J5,JA,JB,JC,JD,JJ,JK,JN,#
2014-10-27 00:00:57,-0.00,0.98,0.00,23.26,28.07,31.06,4.86,26.98,1030.94,2029.97,3014.98,3042.96,3276.00,349.88,352.19,26.24,0000 0000 0000 0000 000000
2014-10-27 00:05:58,0.03,0.98,0.00,23.25,28.07,31.08,4.84,26.98,1030.79,2029.97,3014.88,3042.53,3275.99,349.72,352.15,26.27,0000 0000 0000 0000 000000
2014-10-27 00:10:59,0.02,0.99,0.00,23.24,28.07,31.06,4.89,27.02,1030.79,2029.93,3014.42,3042.11,3275.90,349.93,352.43,26.30,0000 0000 0000 0000 000000
2014-10-27 00:16:00,0.02,0.99,0.00,23.23,28.07,31.07,4.88,26.94,1030.78,2029.90,3014.04,3042.01,3275.38,349.42,351.69,26.33,0000 0000 0000 0000 000000
2014-10-27 00:21:01,0.01,0.99,0.00,23.23,28.07,31.05,4.87,26.88,1030.78,2029.88,3013.96,3042.00,3275.10,350.18,352.38,26.36,0000 0000 0000 0000 000000
2014-10-27 00:26:03,0.00,0.99,0.00,23.23,28.07,31.03,4.86,26.96,1030.78,2029.79,3013.50,3041.98,3275.00,349.75,351.98,26.39,0000 0000 0000 0000 000000
2014-10-27 00:31:04,0.03,0.99,0.00,23.25,28.07,31.02,4.82,26.88,1030.78,2029.79,3013.02,3041.88,3275.00,350.00,352.28,26.42,0000 0000 0000 0000 000000
2014-10-27 00:36:06,0.02,0.99,0.00,23.25,28.07,31.01,4.80,27.04,1030.78,2029.77,3012.98,3041.32,3274.97,349.77,352.26,26.45,0000 0000 0000 0000 000000
2014-10-27 00:41:07,0.02,0.99,0.00,23.25,28.07,31.01,4.87,27.08,1030.78,2029.70,3012.86,3041.03,3274.49,350.26,352.60,26.48,0000 0000 0000 0000 000000
2014-10-27 00:46:08,0.02,0.99,0.00,23.29,28.08,30.97,4.89,27.04,1030.78,2029.82,3012.51,3041.01,3274.31,350.00,352.23,26.51,0000 0000 0000 0000 000000
2014-10-27 00:51:09,-0.06,0.99,0.00,23.29,28.11,30.99,4.88,26.93,1030.78,2029.53,3012.20,3040.99,3274.01,349.92,352.00,26.53,0000 0000 0000 0000 000000
2014-10-27 00:56:10,-0.02,0.99,0.00,23.28,28.14,31.03,4.90,26.96,1030.78,2029.22,3012.00,3040.85,3273.99,349.96,352.01,26.56,0000 0000 0000 0000 000000
2014-10-27 01:01:11,0.05,0.99,0.00,23.30,28.16,31.06,4.91,27.01,1030.76,2029.08,3011.53,3040.25,3273.81,350.27,352.77,26.59,0000 0000 0000 0000 000000
2014-10-27 01:06:13,0.01,0.99,0.00,23.30,28.17,31.05,4.77,26.92,1030.76,2029.05,3011.05,3040.03,3273.11,349.76,351.88,26.62,0000 0000 0000 0000 000000
2014-10-27 01:11:14,0.01,0.99,0.00,23.29,28.17,31.09,4.86,26.87,1030.64,2029.03,3010.69,3039.99,3273.00,349.95,352.25,26.65,0000 0000 0000 0000 000000
2014-10-27 01:16:15,0.01,0.99,0.00,23.29,28.17,31.08,4.88,26.97,1030.60,2029.01,3010.11,3039.92,3272.98,349.96,352.25,26.68,0000 0000 0000 0000 000000
2014-10-27 01:21:17,0.02,0.99,0.00,23.32,28.19,31.09,4.76,26.90,1030.65,2029.01,3010.00,3039.71,3272.92,349.35,351.54,26.71,0000 0000 0000 0000 000000
2014-10-27 01:26:18,0.04,0.99,0.00,23.29,28.20,31.11,4.85,26.95,1030.36,2029.00,3010.00,3039.15,3272.29,350.04,351.93,26.74,0000 0000 0000 0000 000000
2014-10-27 01:31:19,0.01,0.99,0.00,23.28,28.20,31.13,4.85,27.03,1030.39,2029.00,3009.82,3039.01,3272.00,349.81,351.94,26.77,0000 0000 0000 0000 000000
2014-10-27 01:36:21,0.02,0.99,0.00,23.30,28.20,31.14,4.85,26.85,1030.40,2029.00,3009.24,3038.97,3272.00,350.22,352.18,26.80,0000 0000 0000 0000 000000
2014-10-27 01:41:22,0.02,0.99,0.00,23.31,28.22,31.10,4.89,26.98,1030.43,2029.00,3008.91,3038.60,3271.97,349.93,351.96,26.83,0000 0000 0000 0000 000000
2014-10-27 01:46:23,0.04,1.00,0.00,23.31,28.22,31.14,4.82,26.84,1030.36,2029.00,3008.69,3038.23,3271.75,349.48,351.62,26.86,0000 0000 0000 0000 000000
2014-10-27 01:51:25,0.03,1.00,0.00,23.32,28.22,31.16,4.81,26.93,1030.30,2028.99,3008.14,3038.03,3271.11,349.64,351.66,26.89,0000 0000 0000 0000 000000
2014-10-27 01:56:26,0.00,1.00,0.00,23.33,28.23,31.16,4.92,26.89,1030.30,2028.99,3008.09,3038.00,3271.00,350.49,352.38,26.92,0000 0000 0000 0000 000000
2014-10-27 02:01:27,0.00,1.00,0.00,23.33,28.25,31.14,4.86,27.01,1030.29,2028.99,3007.94,3037.98,3271.00,349.80,351.76,26.94,0000 0000 0000 0000 000000
2014-10-27 02:06:29,0.03,1.00,0.00,23.35,28.25,31.11,4.87,26.99,1030.29,2028.99,3007.23,3037.89,3270.98,349.86,351.78,26.97,0000 0000 0000 0000 000000
2014-10-27 02:11:30,0.05,1.00,0.00,23.34,28.25,31.13,4.82,26.82,1030.25,2028.99,3007.01,3037.41,3270.66,349.64,351.53,27.00,0000 0000 0000 0000 000000
2014-10-27 02:16:31,0.01,1.00,0.00,23.33,28.25,31.14,4.91,27.08,1030.05,2028.99,3007.00,3037.09,3270.07,350.44,352.18,27.03,0000 0000 0000 0000 000000
2014-10-27 02:21:32,0.02,1.00,0.00,23.35,28.27,31.18,4.80,26.99,1029.95,2028.99,3006.43,3037.00,3270.01,349.34,351.22,27.06,0000 0000 0000 0000 000000
2014-10-27 02:26:34,0.00,1.00,0.00,23.33,28.27,31.15,4.86,26.96,1029.91,2028.99,3006.04,3037.00,3269.99,349.80,351.40,27.09,0000 0000 0000 0000 000000
2014-10-27 02:31:35,0.00,1.00,0.00,23.28,28.27,31.15,4.86,26.91,1029.87,2028.99,3006.01,3036.98,3269.97,349.72,351.64,27.12,0000 0000 0000 0000 000000
2014-10-27 02:36:36,0.03,1.00,0.00,23.33,28.27,31.19,4.86,27.03,1029.95,2028.99,3006.04,3036.81,3269.30,350.06,352.10,27.15,0000 0000 0000 0000 000000
2014-10-27 02:41:38,0.03,1.00,0.00,23.35,28.27,31.27,4.83,27.04,1030.26,2028.99,3006.02,3036.38,3269.01,349.96,351.90,27.18,0000 0000 0000 0000 000000
2014-10-27 02:46:39,0.02,1.00,0.00,23.33,28.28,31.29,4.87,26.94,1030.24,2028.98,3005.76,3036.05,3269.00,350.32,352.11,27.21,0000 0000 0000 0000 000000
2014-10-27 02:51:40,0.01,1.00,0.00,23.31,28.27,31.30,4.87,26.93,1030.29,2028.98,3005.28,3036.01,3268.99,349.56,351.61,27.24,0000 0000 0000 0000 000000
2014-10-27 02:56:41,0.00,1.00,0.00,23.31,28.27,31.29,4.86,27.04,1030.30,2028.98,3005.04,3036.00,3268.91,349.67,351.68,27.27,0000 0000 0000 0000 000000
2014-10-27 03:01:43,0.01,1.00,0.00,23.31,28.27,31.28,4.84,27.00,1030.29,2028.98,3005.00,3035.99,3268.37,350.11,351.93,27.30,0000 0000 0000 0000 000000
2014-10-27 03:06:44,0.01,1.00,0.00,23.32,28.27,31.25,4.81,27.07,1030.29,2028.98,3004.95,3035.98,3268.21,349.70,351.59,27.33,0000 0000 0000 0000 000000
2014-10-27 03:11:45,0.03,1.01,0.00,23.30,28.27,31.25,4.81,26.97,1030.28,2028.99,3004.37,3035.84,3268.05,349.51,351.54,27.35,0000 0000 0000 0000 000000
2014-10-27 03:16:46,0.03,1.01,0.00,23.34,28.27,31.24,4.85,27.13,1030.09,2028.98,3004.01,3035.24,3268.01,350.29,352.03,27.38,0000 0000 0000 0000 000000
2014-10-27 03:21:48,0.00,1.01,0.00,23.34,28.27,31.22,4.83,26.98,1029.84,2028.99,3003.99,3035.05,3268.00,349.88,351.71,27.41,0000 0000 0000 0000 000000
2014-10-27 03:26:49,0.00,1.01,0.00,23.40,28.27,31.18,4.83,26.99,1029.81,2028.99,3003.93,3035.02,3267.99,349.81,351.64,27.44,0000 0000 0000 0000 000000
2014-10-27 03:31:50,0.01,1.01,0.00,23.27,28.27,31.15,4.90,26.85,1029.80,2028.99,3003.73,3035.00,3267.93,350.28,352.05,27.47,0000 0000 0000 0000 000000
2014-10-27 03:36:52,0.03,1.01,0.00,23.31,28.27,31.16,4.91,26.99,1029.80,2028.98,3003.33,3035.00,3267.28,349.94,351.95,27.50,0000 0000 0000 0000 000000
2014-10-27 03:41:53,0.01,1.01,0.00,23.36,28.27,31.21,4.89,27.03,1029.80,2028.98,3003.05,3034.97,3267.02,350.10,351.87,27.53,0000 0000 0000 0000 000000
2014-10-27 03:46:54,0.01,1.01,0.00,23.33,28.27,31.27,4.89,27.07,1029.80,2028.98,3003.01,3034.91,3267.00,350.18,351.98,27.56,0000 0000 0000 0000 000000
2014-10-27 03:51:55,0.02,1.01,0.00,23.35,28.27,31.26,4.89,26.96,1029.60,2028.97,3002.98,3034.54,3267.00,350.10,351.47,27.59,0000 0000 0000 0000 000000
2014-10-27 03:56:57,0.04,1.01,0.00,23.34,28.27,31.25,4.84,26.98,1029.53,2028.98,3002.43,3034.15,3266.99,349.75,351.42,27.62,0000 0000 0000 0000 000000
2014-10-27 04:01:58,0.00,1.01,0.00,23.34,28.26,31.25,4.87,26.98,1029.46,2028.98,3002.02,3034.05,3266.98,350.08,351.75,27.65,0000 0000 0000 0000 000000
2014-10-27 04:06:59,0.00,1.01,0.00,23.35,28.25,31.24,4.82,26.98,1029.35,2028.99,3001.99,3034.02,3266.98,349.88,351.44,27.68,0000 0000 0000 0000 000000
2014-10-27 04:12:01,0.01,1.01,0.00,23.38,28.25,31.19,4.86,27.02,1029.37,2028.99,3001.78,3034.00,3266.88,349.97,351.57,27.71,0000 0000 0000 0000 000000
2014-10-27 04:17:02,0.02,1.01,0.00,23.27,28.25,31.17,4.83,26.91,1029.48,2028.99,3001.35,3034.00,3266.56,349.69,351.46,27.74,0000 0000 0000 0000 000000
2014-10-27 04:22:03,0.01,1.01,0.00,23.28,28.25,31.22,4.84,26.88,1029.50,2028.99,3001.04,3033.99,3266.14,349.76,351.55,27.76,0000 0000 0000 0000 000000
2014-10-27 04:27:04,0.00,1.01,0.00,23.35,28.25,31.24,4.87,26.90,1029.33,2028.99,3001.00,3033.97,3266.04,350.17,351.87,27.79,0000 0000 0000 0000 000000
2014-10-27 04:32:05,0.01,1.01,0.00,23.35,28.25,31.25,4.84,27.01,1029.32,2028.99,3000.94,3033.92,3266.01,349.62,351.13,27.82,0000 0000 0000 0000 000000
2014-10-27 04:37:07,0.06,1.01,0.00,23.33,28.25,31.25,4.81,27.08,1029.31,2029.00,3000.26,3033.36,3266.00,349.50,350.91,27.85,0000 0000 0000 0000 000000
2014-10-27 04:42:08,0.01,1.02,0.00,23.34,28.24,31.22,4.86,26.99,1029.31,2029.00,3000.00,3033.03,3266.00,350.55,352.18,27.88,0000 0000 0000 0000 000000
2014-10-27 04:47:09,0.00,1.02,0.00,23.36,28.22,31.21,4.83,26.90,1029.31,2029.00,3000.00,3033.01,3265.94,350.07,351.46,27.91,0000 0000 0000 0000 000000
2014-10-27 04:52:11,0.00,1.02,0.00,23.35,28.22,31.19,4.90,26.89,1029.31,2029.00,3000.00,3033.00,3265.74,350.49,352.08,27.94,0000 0000 0000 0000 000000
2014-10-27 04:57:12,0.01,1.02,0.00,23.38,28.22,31.19,4.83,26.96,1029.31,2029.00,3000.01,3033.00,3265.26,349.84,351.35,27.97,0000 0000 0000 0000 000000
2014-10-27 05:02:14,0.00,1.02,0.00,23.30,28.22,31.21,4.86,26.96,1029.30,2029.00,2999.99,3033.00,3265.04,350.02,351.62,28.00,0000 0000 0000 0000 000000
2014-10-27 05:07:15,0.01,1.02,0.00,23.25,28.22,31.15,4.85,26.93,1029.31,2029.00,2999.72,3032.99,3265.00,350.24,351.80,28.03,0000 0000 0000 0000 000000
2014-10-27 05:12:16,0.01,1.02,0.00,23.33,28.22,31.16,4.92,26.97,1029.26,2029.00,2999.49,3032.97,3265.00,350.24,351.88,28.06,0000 0000 0000 0000 000000
2014-10-27 05:17:18,0.01,1.02,0.00,23.35,28.22,31.21,4.82,26.81,1029.20,2029.00,2999.02,3032.90,3265.00,350.03,351.54,28.09,0000 0000 0000 0000 000000
2014-10-27 05:22:19,0.01,1.02,0.00,23.32,28.22,31.24,4.83,26.93,1029.06,2029.01,2999.00,3032.62,3264.99,350.04,351.45,28.12,0000 0000 0000 0000 000000
2014-10-27 05:27:20,0.01,1.02,0.00,23.30,28.22,31.23,4.86,26.93,1028.97,2029.01,2998.98,3032.33,3264.96,350.19,351.43,28.15,0000 0000 0000 0000 000000
2014-10-27 05:32:22,0.05,1.02,0.00,23.32,28.22,31.21,4.83,26.93,1028.88,2029.01,2998.48,3032.08,3264.65,350.03,351.52,28.18,0000 0000 0000 0000 000000
2014-10-27 05:37:23,0.02,1.02,0.00,23.32,28.20,31.21,4.83,27.09,1028.84,2029.01,2998.50,3032.02,3264.19,349.68,351.26,28.20,0000 0000 0000 0000 000000
2014-10-27 05:42:24,0.01,1.02,0.00,23.33,28.20,31.18,4.86,27.09,1028.84,2029.01,2998.05,3032.00,3264.05,350.00,351.69,28.23,0000 0000 0000 0000 000000
2014-10-27 05:47:25,0.00,1.02,0.00,23.34,28.20,31.17,4.86,26.90,1028.83,2029.02,2997.99,3032.00,3264.01,349.96,351.40,28.26,0000 0000 0000 0000 000000
2014-10-27 05:52:27,-0.00,1.02,0.00,23.36,28.20,31.15,4.86,27.10,1028.83,2029.02,2998.00,3032.00,3264.00,350.30,351.70,28.29,0000 0000 0000 0000 000000
2014-10-27 05:57:28,0.00,1.02,0.00,23.21,28.20,31.12,4.86,26.82,1028.81,2029.01,2997.99,3031.99,3263.95,350.24,351.80,28.32,0000 0000 0000 0000 000000
2014-10-27 06:02:30,0.01,1.02,0.00,23.27,28.20,31.11,4.82,26.76,1028.81,2029.00,2997.91,3031.96,3263.82,349.62,351.21,28.35,0000 0000 0000 0000 000000
2014-10-27 06:07:30,0.04,1.02,0.00,23.36,28.20,31.14,4.82,26.91,1028.79,2029.00,2997.23,3031.71,3263.57,350.06,351.48,28.38,0000 0000 0000 0000 000000
2014-10-27 06:12:32,0.04,1.02,0.00,23.35,28.20,31.15,4.77,26.86,1028.72,2029.00,2997.04,3031.26,3263.12,349.99,351.40,28.41,0000 0000 0000 0000 000000
2014-10-27 06:17:33,0.01,1.02,0.00,23.26,28.20,31.14,4.84,27.00,1028.64,2029.00,2996.98,3031.02,3263.01,350.21,351.78,28.44,0000 0000 0000 0000 000000
2014-10-27 06:22:34,0.01,1.02,0.00,23.14,28.20,31.01,4.81,26.94,1028.73,2029.00,2996.65,3031.00,3263.00,349.56,351.11,28.47,0000 0000 0000 0000 000000
2014-10-27 06:27:36,-0.00,1.02,0.00,23.08,28.20,30.82,4.82,26.98,1028.66,2029.00,2996.30,3030.99,3263.00,349.22,351.12,28.50,0000 0000 0000 0000 000000
2014-10-27 06:32:37,0.01,1.02,0.00,23.04,28.20,30.78,4.83,27.02,1028.58,2029.00,2996.19,3030.98,3262.98,349.87,351.76,28.53,0000 0000 0000 0000 000000
2014-10-27 06:37:38,0.04,1.02,0.00,22.96,28.22,30.79,4.85,27.29,1028.56,2028.99,2996.00,3030.65,3262.64,349.71,351.52,28.56,0000 0000 0000 0000 000000
2014-10-27 06:42:39,0.01,1.03,0.00,23.08,28.22,30.82,4.82,26.93,1028.37,2028.99,2995.87,3030.21,3262.37,349.52,351.37,28.59,0000 0000 0000 0000 000000
2014-10-27 06:47:40,0.01,1.03,0.00,23.28,28.22,30.88,4.83,27.01,1028.37,2029.00,2995.88,3030.09,3262.08,349.86,351.16,28.61,0000 0000 0000 0000 000000
2014-10-27 06:52:42,0.02,1.03,0.00,23.47,28.22,30.84,4.83,26.97,1028.35,2029.00,2995.24,3030.02,3262.00,349.81,350.92,28.64,0000 0000 0000 0000 000000
2014-10-27 06:57:43,0.00,1.03,0.00,23.68,28.22,30.84,4.79,26.83,1028.35,2029.00,2995.02,3030.00,3262.00,349.56,350.44,28.67,0000 0000 0000 0000 000000
2014-10-27 07:02:45,0.00,1.03,0.00,23.87,28.22,30.82,4.77,26.82,1028.36,2029.00,2994.89,3029.98,3261.99,349.30,350.05,28.70,0000 0000 0000 0000 000000
2014-10-27 07:07:46,0.02,1.03,0.00,23.86,28.23,30.92,4.87,26.77,1028.34,2029.00,2994.17,3029.97,3261.97,350.03,350.56,28.73,0000 0000 0000 0000 000000
2014-10-27 07:12:48,0.01,1.03,0.00,23.72,28.24,31.12,4.77,26.81,1028.34,2029.00,2994.22,3029.88,3261.71,349.12,350.06,28.76,0000 0000 0000 0000 000000
2014-10-27 07:17:49,0.04,1.03,0.00,23.48,28.24,31.16,4.83,26.85,1028.34,2028.99,2994.22,3029.43,3261.05,350.48,351.40,28.79,0000 0000 0000 0000 000000
2014-10-27 07:22:50,0.02,1.03,0.00,23.35,28.24,31.14,4.89,26.97,1028.34,2028.99,2994.00,3029.14,3261.01,350.66,351.88,28.82,0000 0000 0000 0000 000000
2014-10-27 07:27:51,0.00,1.03,0.00,23.23,28.24,31.13,4.85,26.93,1028.34,2028.99,2993.97,3029.04,3261.01,349.85,351.20,28.85,0000 0000 0000 0000 000000
2014-10-27 07:32:52,0.00,1.03,0.00,23.14,28.22,31.15,4.86,26.90,1028.33,2028.99,2993.95,3029.02,3261.00,350.11,351.72,28.88,0000 0000 0000 0000 000000
2014-10-27 07:37:53,0.00,1.03,0.00,23.08,28.22,31.13,4.86,26.98,1028.32,2028.99,2993.93,3029.01,3260.98,350.09,351.53,28.91,0000 0000 0000 0000 000000
2014-10-27 07:42:55,0.00,1.03,0.00,23.05,28.20,31.13,4.86,26.83,1028.30,2028.99,2993.73,3029.00,3260.94,349.55,351.18,28.94,0000 0000 0000 0000 000000
2014-10-27 07:47:56,0.02,1.03,0.00,23.04,28.19,31.09,4.89,26.82,1028.13,2028.99,2993.09,3029.00,3260.95,349.73,351.24,28.97,0000 0000 0000 0000 000000
2014-10-27 07:52:57,0.00,1.03,0.00,23.02,28.17,31.08,4.87,26.94,1028.07,2029.00,2993.01,3029.00,3260.96,350.24,351.80,28.99,0000 0000 0000 0000 000000
2014-10-27 07:57:58,0.01,1.03,0.00,22.99,28.16,31.07,4.79,26.72,1028.02,2029.00,2993.03,3029.00,3260.77,349.95,351.55,29.02,0000 0000 0000 0000 000000
2014-10-27 08:03:00,-0.00,1.03,0.00,22.98,28.13,31.04,4.83,26.83,1027.91,2029.01,2993.02,3029.00,3260.67,349.66,351.21,29.05,0000 0000 0000 0000 000000
2014-10-27 08:08:00,0.00,1.03,0.00,22.97,28.11,30.99,4.87,26.86,1027.87,2029.04,2993.00,3029.00,3260.92,350.33,351.79,29.08,0000 0000 0000 0000 000000
2014-10-27 08:13:02,0.06,1.03,0.00,22.95,28.08,30.97,4.96,26.89,1027.85,2029.30,2992.99,3029.00,3260.97,350.55,351.76,29.11,0000 0000 0000 0000 000000
2014-10-27 08:18:03,0.04,1.03,0.00,22.93,28.05,30.92,4.90,26.72,1027.85,2029.69,2992.98,3029.01,3260.99,350.22,351.83,29.14,0000 0000 0000 0000 000000
2014-10-27 08:23:04,0.04,1.04,0.00,22.91,28.02,30.87,4.81,26.74,1027.85,2029.92,2992.87,3029.02,3260.99,349.63,351.25,29.17,0000 0000 0000 0000 000000
2014-10-27 08:28:06,0.02,1.04,0.00,22.89,27.99,30.84,4.82,26.77,1027.83,2029.97,2992.43,3029.03,3260.99,350.39,352.04,29.20,0000 0000 0000 0000 000000
2014-10-27 08:33:07,-0.01,1.04,0.00,22.88,27.96,30.80,4.85,26.80,1027.63,2029.99,2992.49,3029.05,3260.99,349.80,351.63,29.23,0000 0000 0000 0000 000000
2014-10-27 08:38:08,0.01,1.04,0.00,22.88,27.93,30.77,4.82,26.93,1027.40,2029.99,2992.46,3029.10,3260.99,349.91,351.35,29.26,0000 0000 0000 0000 000000
2014-10-27 08:43:09,-0.03,1.04,0.00,22.87,27.90,30.74,4.77,26.77,1027.39,2030.02,2992.62,3029.47,3261.00,349.64,351.19,29.29,0000 0000 0000 0000 000000
2014-10-27 08:48:11,0.03,1.04,0.00,22.87,27.88,30.72,4.85,26.94,1027.38,2030.02,2992.21,3029.31,3261.00,350.02,351.38,29.32,0000 0000 0000 0000 000000
2014-10-27 08:53:12,0.01,1.04,0.00,22.85,27.85,30.70,4.79,26.77,1027.37,2030.04,2992.05,3029.31,3261.01,349.65,351.02,29.35,0000 0000 0000 0000 000000
2014-10-27 08:58:13,0.01,1.04,0.00,22.83,27.82,30.67,4.79,26.84,1027.36,2030.13,2992.07,3029.50,3261.00,350.16,351.66,29.38,0000 0000 0000 0000 000000
2014-10-27 09:03:14,0.06,1.04,0.00,22.83,27.80,30.64,4.89,26.89,1027.36,2030.42,2992.00,3029.43,3261.01,350.12,351.67,29.40,0000 0000 0000 0000 000000
2014-10-27 09:08:16,0.04,1.04,0.00,22.83,27.78,30.62,4.92,26.92,1027.33,2030.86,2992.00,3029.64,3261.04,350.19,351.78,29.43,0000 0000 0000 0000 000000
2014-10-27 09:13:17,0.01,1.04,0.00,22.83,27.75,30.61,4.75,26.89,1027.36,2030.98,2991.96,3029.72,3261.06,349.41,351.19,29.46,0000 0000 0000 0000 000000
2014-10-27 09:18:18,-0.01,1.04,0.00,22.84,27.73,30.57,4.85,26.82,1027.31,2030.99,2991.83,3029.82,3261.23,349.65,351.19,29.49,0000 0000 0000 0000 000000
2014-10-27 09:23:20,-0.01,1.04,0.00,22.84,27.71,30.54,4.86,26.93,1027.14,2030.99,2991.91,3029.93,3261.35,350.10,351.32,29.52,0000 0000 0000 0000 000000
2014-10-27 09:28:21,0.01,1.04,0.00,22.82,27.70,30.53,4.81,26.84,1026.92,2031.00,2991.97,3029.96,3261.33,349.62,351.11,29.55,0000 0000 0000 0000 000000
2014-10-27 09:33:22,0.00,1.04,0.00,22.82,27.67,30.51,4.89,26.79,1026.89,2031.03,2991.80,3029.97,3261.47,350.05,351.80,29.58,0000 0000 0000 0000 000000
2014-10-27 09:38:23,0.05,1.04,0.00,22.84,27.66,30.50,4.80,27.12,1026.87,2031.06,2991.12,3029.73,3261.17,349.45,350.83,29.61,0000 0000 0000 0000 000000
2014-10-27 09:43:24,0.11,1.04,0.00,22.83,27.64,30.47,4.90,26.97,1026.87,2031.44,2990.97,3029.27,3261.01,349.61,351.05,29.64,0000 0000 0000 0000 000000
2014-10-27 09:48:26,0.06,1.05,0.00,22.80,27.62,30.48,4.85,26.91,1026.87,2031.79,2990.53,3029.05,3260.99,349.91,351.32,29.67,0000 0000 0000 0000 000000
2014-10-27 09:53:27,0.04,1.05,0.00,22.82,27.61,30.46,4.77,26.73,1026.82,2031.95,2990.04,3029.01,3260.99,349.69,350.82,29.70,0000 0000 0000 0000 000000
2014-10-27 09:58:28,-0.00,1.05,0.00,22.82,27.60,30.41,4.85,26.93,1026.85,2031.98,2990.03,3029.00,3260.97,350.05,351.54,29.73,0000 0000 0000 0000 000000
2014-10-27 10:03:30,0.01,1.05,0.00,22.82,27.57,30.41,4.93,26.88,1026.85,2031.97,2990.00,3029.00,3260.90,350.52,351.78,29.76,0000 0000 0000 0000 000000
2014-10-27 10:08:30,0.03,1.05,0.00,22.85,27.57,30.42,4.84,26.93,1026.71,2031.99,2989.83,3028.99,3260.29,350.07,351.47,29.79,0000 0000 0000 0000 000000
2014-10-27 10:13:32,0.07,1.05,0.00,22.83,27.55,30.42,4.92,27.00,1026.45,2031.99,2989.01,3028.47,3259.92,350.28,351.58,29.82,0000 0000 0000 0000 000000
2014-10-27 10:18:33,0.15,1.05,0.00,22.81,27.55,30.42,4.71,26.91,1026.38,2031.99,2987.35,3027.33,3258.81,349.35,350.60,29.84,0000 0000 0000 0000 000000
2014-10-27 10:23:34,0.12,1.06,0.00,22.81,27.52,30.36,4.82,26.97,1026.38,2031.99,2985.70,3026.43,3257.80,349.53,350.77,29.87,0000 0000 0000 0000 000000
2014-10-27 10:28:36,0.10,1.06,0.00,22.80,27.52,30.37,4.83,26.87,1026.38,2031.99,2984.26,3025.32,3256.88,349.84,351.25,29.90,0000 0000 0000 0000 000000
2014-10-27 10:33:37,0.05,1.06,0.00,22.79,27.50,30.37,4.83,26.93,1026.38,2032.00,2983.30,3024.92,3256.12,349.89,350.99,29.93,0000 0000 0000 0000 000000
2014-10-27 10:38:38,0.09,1.07,0.00,22.82,27.50,30.31,4.87,27.18,1026.38,2032.00,2982.46,3024.15,3255.55,349.21,350.60,29.96,0000 0000 0000 0000 000000
2014-10-27 10:43:39,0.01,1.07,0.00,22.81,27.48,30.35,4.88,26.86,1026.38,2032.00,2982.00,3023.99,3255.02,350.14,351.59,29.99,0000 0000 0000 0000 000000
2014-10-27 10:48:41,0.03,1.07,0.00,22.81,27.47,30.33,4.86,26.83,1026.38,2032.01,2981.52,3023.91,3254.99,350.30,351.53,30.02,0000 0000 0000 0000 000000
2014-10-27 10:53:42,0.04,1.07,0.00,22.82,27.47,30.32,4.82,26.82,1026.38,2032.01,2981.01,3023.31,3254.84,349.82,351.29,30.05,0000 0000 0000 0000 000000
2014-10-27 10:58:43,0.02,1.07,0.00,22.79,27.45,30.33,4.83,26.86,1026.25,2032.01,2980.92,3023.03,3254.35,349.60,351.09,30.08,0000 0000 0000 0000 000000
2014-10-27 11:03:44,0.03,1.07,0.00,22.79,27.45,30.31,4.82,26.82,1025.94,2032.02,2980.18,3023.00,3254.03,350.34,351.45,30.11,0000 0000 0000 0000 000000
2014-10-27 11:08:45,0.00,1.07,0.00,22.81,27.44,30.29,4.88,26.87,1025.90,2032.05,2980.00,3022.99,3254.00,350.14,351.01,30.14,0000 0000 0000 0000 000000
2014-10-27 11:13:46,0.03,1.07,0.00,22.81,27.42,30.29,4.87,26.85,1025.91,2032.16,2979.96,3022.96,3254.00,349.93,350.84,30.17,0000 0000 0000 0000 000000
2014-10-27 11:18:47,0.07,1.07,0.00,22.80,27.42,30.30,4.78,26.86,1025.91,2032.31,2979.32,3022.61,3253.93,350.03,351.19,30.20,0000 0000 0000 0000 000000
2014-10-27 11:23:48,0.16,1.08,0.00,22.81,27.42,30.26,4.81,26.95,1025.90,2032.74,2978.36,3022.01,3253.10,349.85,350.94,30.22,0000 0000 0000 0000 000000
2014-10-27 11:28:50,0.00,1.08,0.00,22.79,27.40,30.28,4.89,26.93,1025.90,2032.57,2977.98,3021.50,3252.57,350.49,351.73,30.25,0000 0000 0000 0000 000000
2014-10-27 11:33:51,0.02,1.08,0.00,22.80,27.40,30.26,4.86,26.90,1025.90,2032.40,2977.62,3021.08,3252.09,350.16,351.26,30.28,0000 0000 0000 0000 000000
2014-10-27 11:38:52,0.07,1.08,0.00,22.82,27.40,30.27,4.81,27.07,1025.90,2032.45,2976.54,3020.70,3251.76,349.76,350.97,30.31,0000 0000 0000 0000 000000
2014-10-27 11:43:53,0.13,1.09,0.00,22.82,27.40,30.26,4.84,26.86,1025.90,2032.69,2975.09,3019.99,3250.89,349.75,350.88,30.34,0000 0000 0000 0000 000000
2014-10-27 11:48:55,0.04,1.09,0.00,22.82,27.39,30.25,4.85,26.96,1025.87,2032.82,2975.00,3019.94,3250.69,349.93,350.80,30.37,0000 0000 0000 0000 000000
2014-10-27 11:53:56,0.14,1.09,0.00,22.82,27.38,30.26,4.85,26.90,1025.86,2032.93,2973.94,3018.96,3249.86,350.10,350.97,30.40,0000 0000 0000 0000 000000
2014-10-27 11:58:57,0.21,1.10,0.00,22.80,27.37,30.21,4.76,26.88,1025.89,2032.93,2971.40,3017.41,3248.28,349.10,350.25,30.43,0000 0000 0000 0000 000000
2014-10-27 12:03:58,0.11,1.10,0.00,22.80,27.37,30.21,4.85,26.95,1025.80,2032.84,2969.46,3016.11,3246.98,349.93,350.97,30.46,0000 0000 0000 0000 000000
2014-10-27 12:09:00,0.07,1.10,0.00,22.83,27.37,30.20,4.86,26.79,1025.47,2032.87,2968.72,3015.70,3246.18,350.12,351.12,30.49,0000 0000 0000 0000 000000
2014-10-27 12:14:01,0.04,1.11,0.00,22.84,27.37,30.23,4.83,26.88,1025.44,2032.88,2968.03,3015.07,3246.01,349.99,350.97,30.52,0000 0000 0000 0000 000000
2014-10-27 12:19:02,0.03,1.11,0.00,22.83,27.37,30.21,4.82,26.84,1025.46,2032.96,2967.66,3015.00,3245.89,349.57,350.49,30.55,0000 0000 0000 0000 000000
2014-10-27 12:24:04,0.05,1.11,0.00,22.83,27.35,30.21,4.83,26.82,1025.43,2032.98,2967.06,3014.74,3245.12,350.06,350.85,30.58,0000 0000 0000 0000 000000
2014-10-27 12:29:05,0.02,1.11,0.00,22.82,27.35,30.22,4.75,26.87,1025.41,2032.98,2966.96,3014.12,3245.00,349.14,350.16,30.61,0000 0000 0000 0000 000000
2014-10-27 12:34:06,0.02,1.11,0.00,22.82,27.35,30.21,4.85,26.89,1025.42,2032.96,2966.66,3014.02,3244.96,349.90,350.82,30.63,0000 0000 0000 0000 000000
2014-10-27 12:39:07,0.02,1.11,0.00,22.84,27.35,30.21,4.82,26.98,1025.41,2032.96,2966.05,3014.00,3244.73,349.98,350.86,30.66,0000 0000 0000 0000 000000
2014-10-27 12:44:08,0.00,1.11,0.00,22.84,27.35,30.20,4.84,26.89,1025.38,2032.98,2966.00,3014.00,3244.55,349.96,350.71,30.69,0000 0000 0000 0000 000000
2014-10-27 12:49:10,0.01,1.11,0.00,22.83,27.35,30.19,4.85,26.95,1025.30,2032.98,2965.97,3013.99,3244.20,350.07,350.96,30.72,0000 0000 0000 0000 000000
2014-10-27 12:54:11,0.00,1.11,0.00,22.82,27.34,30.20,4.86,26.86,1025.19,2032.99,2965.96,3013.98,3244.12,350.50,351.32,30.75,0000 0000 0000 0000 000000
2014-10-27 12:59:12,0.03,1.11,0.00,22.82,27.33,30.19,4.73,26.92,1024.99,2032.99,2965.40,3013.86,3244.01,349.09,349.85,30.78,0000 0000 0000 0000 000000